WGS F4 (USA 233)

Last updated on Fri Jul 10 2026 00:03:03 GMT+0000 (Coordinated Universal Time)

1 38070U 12003A 26190.21780937 .00000000 00000+0 00000+0 0 9997 2 38070 0.0240 32.4359 0001138 121.0054 300.5327 1.00272644 44372
UTC large
Height (km)
Speed (km/s)
/
Latitude / Longitude
Inclination (degrees)
Orbital Period (minutes)
Azimuth
Elevation
Range (km)
Doppler Factor

Next 0 passes for location: London (51.5072 / 0.1276)

No passes found over London.
WGS F4 (USA 233)